Location: Unspecified
(41.1637°N, 24.2901°E)
Time: 15:33:22
(UTC+01:00)

ISS - Pass Details

Date: 22 November 2020
Orbit: 418 x 421 km, 51.6° (Epoch: 29 November)

Event Time Altitude Azimuth Distance (km) Brightness Sun altitude
Rises 16:29:55 0° 218° (SW) 2,347 1.2 -6.2°
Reaches altitude 10° 16:32:03 10° 212° (SSW) 1,488 -0.1 -6.6°
Maximum altitude 16:35:15 45° 139° (SE) 582 -3.2 -7.2°
Enters shadow 16:38:27 10° 65° (ENE) 1,487 -1.7 -7.7°
